Wind_Speed
31 31 32 33 33 32 32 31 30 28 26 24 22 21 20 19 18 18 18 17 16 15 15 15 15 16 15 15 15 15 14 14 15 15 15 17 17 17 17 16 16 16 16 17
31 31 32 33 33 33 33 32 31 29 27 25 23 21 20 19 19 18 18 18 18 18 18 18 17 16 16 16 16 16 15 15 16 16 16 17 18 18 18 16 16 16 17 18
32 32 32 33 33 33 33 32 31 30 28 25 24 23 22 21 20 20 19 19 18 18 18 18 18 17 17 17 16 16 16 16 17 17 18 18 19 20 19 18 17 17 18 18
33 32 34 33 32 32 32 32 31 30 28 27 25 23 22 22 22 21 21 20 20 20 19 19 19 18 18 18 19 19 18 18 18 18 18 19 19 20 20 20 18 18 19 19
35 35 34 32 31 31 32 32 31 30 28 27 26 25 24 23 23 23 22 21 21 21 21 21 21 20 20 20 20 20 20 19 19 20 20 20 20 20 19 20 20 20 20 20
36 36 35 33 32 32 32 32 31 30 29 28 27 27 25 24 24 24 23 23 22 23 22 22 22 22 22 22 22 22 21 21 21 21 21 22 22 22 21 21 21 20 20 21
36 36 35 34 33 32 33 32 31 31 30 29 28 28 27 26 26 26 25 24 23 23 23 22 23 23 23 23 23 22 22 22 23 23 23 23 23 22 22 22 22 22 22 23
36 36 35 34 33 33 33 32 32 32 31 31 30 29 28 27 26 26 26 25 24 24 24 24 24 23 23 22 21 21 22 22 23 23 23 23 23 23 22 23 23 24 24 24
37 36 34 34 33 33 32 32 32 32 32 31 30 30 29 27 27 27 26 26 25 25 25 24 24 23 23 22 22 22 22 23 23 22 22 22 23 23 23 24 24 25 25 26
36 36 35 34 33 32 32 31 30 31 31 31 31 31 30 28 28 28 27 27 27 27 26 24 24 23 23 23 24 24 23 23 23 23 23 23 24 24 24 25 25 26 26 26
38 36 36 36 35 33 33 32 31 30 30 31 31 30 30 29 29 28 27 27 27 26 25 24 24 24 24 24 24 24 24 24 24 24 24 24 24 25 25 25 25 25 25 26
37 36 37 36 36 34 33 33 32 31 30 31 31 31 30 30 29 28 28 27 27 27 26 25 25 26 26 26 24 24 24 25 25 25 25 26 26 26 25 26 26 25 26 26
36 35 35 35 35 35 34 34 33 33 31 31 31 31 30 30 30 29 28 28 27 27 27 27 26 26 26 26 24 23 24 25 25 25 25 25 26 26 25 25 25 25 25 26
35 35 34 34 33 34 33 33 33 33 32 31 31 31 31 31 30 30 28 28 26 26 27 26 26 26 26 26 26 25 25 25 25 25 25 25 26 25 25 25 25 25 25 26
35 35 34 33 33 33 33 33 33 32 32 31 31 31 32 32 31 30 29 28 27 26 26 26 25 25 26 26 26 26 25 25 25 25 25 25 25 25 25 25 26 26 26 26
34 34 34 33 32 32 33 33 33 32 32 31 31 31 32 33 32 31 29 29 28 26 25 25 24 24 25 26 26 25 25 24 24 24 24 25 25 25 25 25 25 26 25 25
33 33 33 32 32 32 32 32 32 32 32 32 33 32 32 32 31 30 30 29 28 26 25 25 25 24 24 24 24 24 24 23 23 24 24 24 25 25 25 25 25 25 26 25
30 31 32 32 32 32 32 31 32 32 31 30 30 31 31 30 31 31 30 28 27 26 26 26 25 25 23 23 23 23 23 23 23 24 24 24 24 24 24 25 24 24 25 25
27 28 29 30 30 31 30 30 30 30 30 29 30 30 30 30 28 27 26 26 26 26 25 24 24 23 22 22 22 22 23 23 23 23 24 24 24 24 25 24 24 24 26 26
25 26 26 27 28 29 28 28 28 28 28 28 27 27 27 27 27 26 26 26 27 25 24 24 24 23 23 22 21 22 22 22 23 23 24 24 25 25 25 25 25 26 26 27
24 24 25 25 26 27 27 27 26 25 25 26 27 26 26 25 25 25 24 25 24 23 23 23 22 22 21 21 22 22 22 22 23 23 24 24 24 25 25 25 26 26 27 27
24 25 25 25 26 26 25 25 25 23 23 24 25 26 26 26 25 25 24 24 23 23 23 22 22 22 21 22 22 22 21 22 23 23 23 23 23 24 24 25 25 26 26 27
24 24 25 25 25 25 25 25 25 24 24 23 23 24 24 23 24 23 22 22 22 22 22 22 22 21 22 22 22 22 22 22 23 23 23 23 23 23 23 24 24 25 25 26
23 24 24 24 24 24 24 25 24 24 24 24 23 23 22 21 21 20 21 21 21 22 22 22 21 21 21 22 22 22 22 22 23 23 22 22 22 23 24 24 24 24 25 25
21 22 22 22 23 23 23 24 24 23 23 22 21 21 21 21 21 21 21 21 21 21 22 22 21 21 21 22 22 22 22 23 23 23 22 22 21 22 23 23 23 23 24 24
19 20 21 21 21 22 22 23 24 23 22 22 21 21 21 21 21 21 21 21 21 21 21 21 21 21 21 22 22 23 22 21 21 21 21 21 21 21 21 21 21 21 22 23
17 18 19 20 21 22 22 22 23 23 22 22 21 21 21 21 21 21 21 21 21 21 21 21 21 21 21 22 21 21 20 19 19 20 20 21 21 21 20 19 19 20 22 23
Wind_Direction
229 229 230 232 233 236 239 242 245 247 252 253 256 257 258 258 258 260 263 264 268 272 274 280 284 286 288 291 291 294 296 294 296 298 301 303 302 301 305 307 304 300 301 302
230 231 232 233 233 235 237 241 244 247 249 250 252 254 257 258 259 260 263 263 266 270 272 276 279 281 282 287 290 292 291 290 293 295 298 301 301 298 301 301 301 300 301 302
231 230 232 233 234 236 238 241 243 245 247 250 250 253 255 256 257 258 259 263 269 274 274 275 275 278 279 283 287 289 290 291 293 295 297 298 301 303 301 300 298 299 301 300
233 232 233 234 233 235 237 240 242 245 246 248 251 253 253 253 255 256 260 263 267 271 274 276 278 281 284 286 288 288 289 290 291 295 297 298 299 300 300 301 300 298 301 301
235 236 236 233 232 234 237 239 242 246 247 247 246 249 251 252 255 257 260 263 266 271 275 277 278 279 283 283 283 285 285 286 288 293 296 297 300 302 298 298 299 298 299 300
234 235 236 235 235 235 237 240 241 244 246 247 247 248 250 252 255 257 259 264 267 271 274 277 277 277 281 282 282 283 283 284 286 289 292 294 296 297 298 297 297 298 298 299
234 236 236 236 237 237 239 241 242 243 245 246 247 248 248 250 254 256 260 263 266 270 272 274 276 278 280 281 283 281 282 287 286 288 289 291 294 296 297 298 298 298 298 299
234 237 238 237 239 240 241 242 243 243 244 245 246 248 249 250 252 255 259 262 263 267 270 273 276 277 279 282 285 284 286 289 289 289 287 288 291 294 296 296 296 296 296 296
235 237 238 239 240 240 241 242 242 243 243 245 246 247 249 250 253 257 259 260 262 266 268 273 275 276 277 281 284 286 288 288 288 288 288 288 290 292 293 294 294 295 294 294
236 237 238 238 239 239 239 240 241 242 242 243 245 246 247 250 252 255 258 262 264 265 268 271 274 275 279 280 282 285 287 287 286 286 286 288 289 290 292 292 293 293 292 293
237 238 239 239 239 239 239 239 241 242 241 242 243 245 246 250 253 256 259 261 264 266 268 269 270 274 277 279 281 283 285 284 285 286 287 288 289 290 291 291 291 291 292 292
237 238 239 239 240 240 240 240 240 240 241 242 242 244 245 248 250 254 258 260 262 265 268 269 271 273 275 276 276 279 283 284 286 287 287 288 288 289 290 290 291 291 291 292
237 237 238 239 239 240 240 239 239 240 241 242 242 243 245 248 250 252 255 259 262 264 266 269 271 272 275 275 275 278 281 283 285 287 288 288 288 289 290 290 291 291 292 292
235 235 236 236 237 239 239 239 239 240 241 243 244 245 247 248 250 251 253 257 260 262 265 268 270 272 273 274 274 275 279 281 283 285 286 288 288 288 290 291 290 290 291 292
234 235 236 236 237 239 240 240 238 238 241 244 246 246 248 249 250 250 251 253 257 261 264 267 268 269 271 272 274 275 276 279 282 284 285 287 289 289 291 291 292 291 291 293
233 234 235 236 237 237 238 240 240 241 243 246 247 247 248 248 249 248 249 250 254 258 261 264 265 268 270 271 274 276 275 277 279 281 283 286 288 290 291 292 293 294 295 296
232 233 235 237 236 238 241 242 242 242 246 247 248 248 250 251 251 250 249 248 251 254 257 261 264 268 270 272 274 276 276 276 279 282 284 286 288 290 291 292 293 294 295 296
232 233 235 236 238 240 241 242 242 243 246 249 249 250 251 251 251 251 248 248 249 252 257 262 267 269 270 271 273 275 277 278 281 283 284 287 289 291 293 292 293 294 295 297
233 235 236 237 238 238 240 242 244 246 247 250 250 250 251 251 251 251 247 247 248 252 258 262 265 266 267 269 271 273 275 278 281 283 285 288 289 291 292 292 292 293 295 297
233 235 235 236 236 238 239 242 245 246 247 248 248 247 248 252 251 249 245 247 251 254 256 259 264 268 270 271 273 274 276 278 281 284 287 289 290 290 291 291 292 294 296 297
234 235 235 236 236 238 240 241 242 244 246 246 246 247 250 251 248 247 247 250 253 254 256 259 263 266 269 272 276 277 277 279 282 285 287 289 290 290 291 292 293 294 295 296
236 236 237 237 236 236 237 239 240 241 243 244 246 248 249 248 247 247 249 250 251 252 254 258 262 266 269 273 275 277 279 282 284 285 287 288 290 291 292 292 293 294 295 296
234 235 237 237 236 236 235 236 237 240 242 242 244 244 244 246 247 246 247 249 251 254 256 259 263 266 269 272 274 277 279 282 283 285 286 288 289 291 293 293 294 295 297 298
235 235 237 237 236 236 236 236 237 238 239 239 240 239 239 241 242 243 245 248 252 255 257 260 263 265 267 270 273 275 276 278 283 285 286 288 290 292 293 294 294 296 298 300
237 237 236 235 234 234 234 234 234 234 234 236 238 237 238 239 241 243 244 247 251 255 259 262 262 263 266 269 272 275 277 279 280 282 286 289 291 293 294 296 297 299 301 302
237 235 234 234 233 232 231 231 232 231 231 234 236 236 237 239 242 244 246 249 253 256 259 261 263 263 265 268 272 275 278 279 278 280 287 289 290 292 294 295 298 301 304 306
236 233 231 230 229 228 228 229 229 230 231 231 231 234 237 239 241 243 246 250 253 256 259 261 263 264 265 268 269 272 275 276 277 281 286 288 288 289 292 294 297 301 304 307
Height
5841 5845 5849 5853 5857 5861 5865 5868 5872 5875 5878 5881 5883 5885 5886 5888 5890 5891 5892 5892 5892 5893 5893 5893 5893 5892 5890 5889 5889 5888 5886 5886 5885 5883 5882 5881 5879 5877 5875 5872 5870 5870 5869 5868
5834 5839 5843 5847 5851 5855 5859 5862 5865 5869 5872 5875 5878 5880 5882 5884 5885 5886 5887 5888 5889 5889 5889 5889 5889 5888 5887 5886 5886 5884 5883 5883 5881 5880 5878 5877 5875 5873 5871 5869 5867 5866 5866 5864
5828 5833 5836 5840 5845 5849 5853 5856 5860 5863 5867 5870 5873 5875 5877 5879 5880 5882 5883 5884 5884 5884 5884 5884 5884 5884 5883 5882 5881 5881 5880 5878 5877 5876 5875 5873 5872 5870 5868 5866 5864 5863 5861 5860
5822 5826 5829 5836 5839 5843 5846 5850 5853 5857 5861 5864 5867 5869 5871 5873 5875 5876 5877 5878 5879 5879 5879 5879 5879 5879 5878 5878 5877 5876 5875 5874 5873 5872 5871 5869 5868 5866 5864 5862 5860 5859 5857 5856
5815 5818 5823 5829 5833 5836 5840 5844 5848 5851 5855 5857 5860 5863 5865 5867 5869 5870 5871 5872 5873 5873 5874 5874 5874 5874 5873 5872 5872 5871 5870 5869 5868 5867 5866 5865 5863 5861 5859 5857 5856 5854 5853 5851
5808 5811 5816 5823 5826 5830 5835 5837 5841 5844 5848 5851 5853 5856 5859 5861 5863 5864 5865 5866 5867 5867 5868 5868 5868 5868 5867 5867 5866 5865 5864 5864 5863 5862 5861 5860 5858 5856 5854 5853 5851 5850 5848 5846
5800 5805 5809 5816 5819 5824 5829 5832 5835 5837 5841 5844 5847 5850 5853 5854 5856 5857 5858 5860 5860 5861 5861 5862 5862 5862 5861 5861 5859 5859 5859 5857 5857 5856 5855 5854 5853 5851 5849 5847 5846 5844 5843 5841
5794 5798 5805 5809 5812 5817 5820 5824 5827 5830 5833 5837 5840 5842 5845 5846 5849 5850 5852 5853 5854 5855 5855 5855 5856 5856 5855 5855 5854 5853 5853 5852 5852 5850 5849 5848 5847 5845 5844 5842 5840 5839 5837 5835
5788 5793 5797 5801 5805 5808 5812 5816 5820 5823 5826 5830 5833 5836 5838 5840 5842 5844 5845 5846 5847 5848 5849 5849 5849 5849 5849 5848 5848 5848 5847 5846 5845 5844 5843 5842 5841 5839 5838 5836 5834 5833 5831 5829
5780 5784 5789 5793 5797 5800 5804 5808 5812 5815 5819 5822 5825 5828 5831 5833 5835 5837 5839 5840 5841 5842 5842 5843 5843 5842 5842 5842 5842 5842 5841 5840 5839 5838 5837 5836 5834 5833 5831 5829 5828 5826 5824 5822
5772 5776 5781 5785 5789 5793 5797 5801 5804 5808 5811 5815 5818 5821 5824 5826 5828 5830 5831 5833 5834 5835 5836 5836 5836 5836 5836 5835 5835 5835 5834 5833 5832 5831 5830 5829 5827 5826 5824 5822 5820 5819 5817 5815
5764 5768 5773 5777 5781 5785 5789 5793 5797 5800 5804 5807 5810 5813 5816 5818 5820 5822 5824 5826 5827 5828 5829 5829 5829 5829 5829 5828 5827 5827 5827 5826 5825 5824 5823 5821 5820 5818 5816 5815 5813 5811 5809 5808
5755 5760 5764 5768 5772 5776 5781 5785 5789 5793 5796 5799 5803 5806 5808 5811 5813 5815 5816 5818 5819 5820 5821 5821 5821 5822 5821 5821 5820 5820 5820 5819 5818 5817 5815 5814 5813 5811 5809 5808 5806 5804 5802 5800
5747 5751 5756 5760 5764 5768 5773 5777 5781 5784 5788 5791 5795 5798 5800 5803 5805 5806 5809 5810 5811 5812 5813 5814 5814 5814 5814 5814 5814 5813 5813 5812 5811 5810 5808 5807 5806 5804 5802 5800 5799 5797 5795 5793
5738 5743 5748 5752 5757 5761 5765 5769 5773 5776 5780 5783 5786 5789 5792 5794 5796 5798 5800 5802 5803 5805 5805 5806 5806 5806 5806 5806 5806 5806 5805 5804 5804 5802 5801 5800 5799 5797 5795 5794 5792 5790 5788 5786
5730 5735 5740 5744 5749 5753 5757 5761 5765 5769 5772 5775 5778 5781 5783 5786 5788 5790 5792 5794 5795 5797 5798 5798 5798 5797 5798 5798 5799 5798 5798 5797 5796 5795 5794 5793 5791 5790 5788 5787 5785 5783 5781 5779
5722 5727 5732 5737 5741 5745 5749 5753 5757 5761 5764 5767 5770 5772 5775 5777 5779 5781 5783 5785 5787 5789 5790 5791 5791 5791 5791 5791 5791 5791 5791 5790 5789 5788 5787 5786 5784 5783 5781 5780 5778 5776 5774 5772
5715 5719 5724 5729 5733 5737 5741 5745 5748 5752 5756 5759 5761 5764 5766 5768 5771 5773 5775 5777 5779 5781 5783 5784 5784 5784 5784 5784 5784 5784 5784 5783 5783 5782 5781 5779 5778 5776 5774 5773 5771 5769 5767 5766
5708 5712 5717 5721 5725 5729 5733 5737 5740 5744 5747 5750 5753 5756 5758 5761 5763 5765 5767 5769 5772 5774 5775 5776 5777 5777 5777 5778 5777 5777 5777 5776 5776 5775 5774 5773 5771 5769 5767 5766 5764 5762 5760 5758
5702 5706 5710 5714 5718 5722 5725 5729 5732 5736 5739 5741 5744 5747 5750 5753 5755 5758 5760 5763 5765 5767 5768 5769 5770 5771 5771 5771 5771 5770 5770 5769 5769 5768 5767 5765 5764 5762 5760 5758 5757 5755 5753 5751
5697 5700 5703 5707 5710 5714 5718 5721 5725 5728 5731 5734 5737 5740 5743 5745 5748 5750 5753 5756 5758 5759 5761 5762 5763 5764 5764 5764 5764 5764 5763 5763 5762 5760 5759 5758 5756 5755 5753 5751 5749 5747 5745 5743
5691 5694 5697 5700 5704 5707 5710 5714 5718 5721 5724 5727 5730 5733 5736 5738 5741 5743 5746 5748 5751 5752 5754 5755 5756 5756 5757 5757 5757 5757 5756 5755 5754 5753 5752 5750 5749 5747 5746 5744 5742 5740 5738 5735
5685 5687 5690 5694 5697 5700 5703 5707 5711 5714 5717 5720 5723 5726 5729 5731 5733 5736 5739 5741 5743 5745 5747 5748 5748 5749 5750 5750 5750 5750 5749 5749 5748 5746 5745 5743 5742 5741 5739 5737 5735 5733 5731 5728
5679 5681 5684 5687 5690 5694 5697 5700 5704 5707 5711 5714 5717 5720 5722 5724 5727 5729 5732 5735 5737 5738 5739 5740 5741 5742 5743 5743 5743 5743 5742 5742 5741 5739 5738 5737 5735 5734 5732 5730 5728 5726 5724 5721
5673 5675 5678 5681 5684 5688 5691 5694 5697 5701 5704 5707 5710 5712 5715 5718 5721 5723 5726 5728 5729 5731 5732 5733 5734 5735 5736 5736 5736 5736 5735 5734 5734 5733 5731 5730 5729 5727 5725 5723 5721 5719 5717 5714
5667 5669 5672 5675 5678 5682 5685 5688 5691 5695 5698 5701 5704 5707 5709 5712 5714 5717 5719 5721 5722 5724 5725 5726 5727 5728 5728 5729 5729 5729 5728 5727 5727 5726 5725 5723 5722 5721 5719 5717 5715 5713 5710 5708
5662 5664 5666 5670 5673 5676 5679 5683 5686 5689 5692 5695 5698 5701 5703 5706 5708 5710 5712 5714 5716 5717 5718 5719 5720 5721 5721 5722 5722 5722 5721 5721 5720 5719 5718 5717 5716 5714 5713 5710 5708 5706 5704 5702